Tracking 29892 objects as of 21-Nov-2024
HD Live streaming from Space Station
objects crossing your sky now

STARLINK-32195

Track STARLINK-32195 now!
10-day predictions
STARLINK-32195 is classified as:


NORAD ID: 60440
Int'l Code: 2024-144R
Perigee: 481.6 km
Apogee: 483.1 km
Inclination: 53.2 °
Period: 94.1 minutes
Semi major axis: 6853 km
RCS: Unknown
Launch date: August 12, 2024
Source: United States (US)
Launch site: AIR FORCE EASTERN TEST RANGE (AFETR)
Your satellite tracking list
Your tracking list is empty




NASA's NSSDC Master Catalog

Two Line Element Set (TLE):
1 60440U 24144R   24325.84558161 -.00000122  00000-0  80178-5 0  9998
2 60440  53.1628 257.9415 0001053  89.3310 270.7811 15.30202081 16709
Source of the keplerian elements: AFSPC